Regional Weather Roundup
Issued by NWS

Home | Current Version | Previous Version | Text Only | Print | Product List | Glossary Off
Versions: 1 2 3 4 5 6 7 8 9 10 11 12 13 14 15 16 17 18 19 20 21 22 23 24 25 26 27 28 29 30 31 32 33 34 35 36 37 38 39 40 41 42 43 44 45 46 47 48 49 50

000
ASUS45 KCYS 010210
RWRWY

WYOMING REGIONAL WEATHER ROUNDUP
NATIONAL WEATHER SERVICE CHEYENNE WY
800 PM MDT THU JUL 31 2014

NOTE:  "FAIR" INDICATES FEW OR NO CLOUDS BELOW 12,000 FEET
WITH NO SIGNIFICANT WEATHER AND/OR OBSTRUCTIONS TO VISIBILITY.

WYZ001-010300-
YELLOWSTONE NATIONAL PARK

CITY           SKY/WX    TMP DP  RH WIND       PRES   REMARKS
LK YELLOWSTONE   N/A     57  49  74 CALM      30.43S
W YELLOWSTONE  NOT AVBL

$$
WYZ002>013-054>058-071-098>099-010300-
NORTHERN WYOMING

CITY           SKY/WX    TMP DP  RH WIND       PRES   REMARKS
JACKSON        NOT AVBL
CODY           MOCLDY    75  39  27 NW8       30.18S
GREYBULL       PTCLDY    81  43  26 E9        30.07S
WORLAND        PTCLDY    83  43  24 CALM      30.08S
SHERIDAN       PTCLDY    78  42  27 SW12      30.09S
BUFFALO        PTCLDY    73  38  27 SW8       30.18S
GILLETTE       CLEAR     76  53  44 S5        30.12S
HULETT         FAIR      73  45  35 MISG      30.15
NEWCASTLE      FAIR      77  39  25 MISG      30.16

$$
WYZ014>020-022>026-101>103-010300-
CENTRAL WYOMING

CITY           SKY/WX    TMP DP  RH WIND       PRES   REMARKS
BIG PINEY      MOCLDY    68  45  43 W5        30.31F
PINEDALE       MOCLDY    70  37  30 W5        30.32S
DUBOIS         FAIR      66  36  32 SW3       30.34S
LANDER         CLOUDY    77  34  21 N5        30.19R
RIVERTON       CLOUDY    78  27  15 N8        30.20S
CASPER         PTCLDY    76  27  16 SE8       30.19R
DOUGLAS        CLEAR     76  40  27 S8        30.18F

$$
WYZ021-027>030-104>119-010300-
SOUTHERN WYOMING

CITY           SKY/WX    TMP DP  RH WIND       PRES   REMARKS
EVANSTON       PTCLDY    71  39  31 NE6       30.30F
KEMMERER       PTCLDY   N/A N/A N/A E5        30.33S
FORT BRIDGER   FAIR      72  41  32 N3        30.32F
ROCK SPRINGS   CLEAR     74  23  15 E9        30.27S
DIXON          MOCLDY    76  40  27 NE15G21   30.24S
RAWLINS        CLEAR     72  34  24 E9        30.28R
SARATOGA       FAIR      70  39  32 N8        30.29S
LARAMIE        PTCLDY    64  47  53 S9        30.33R
CHEYENNE       PTCLDY    67  49  52 SW9G28    30.28R
TORRINGTON     CLEAR     76  45  33 SE8       30.14S
PINE BLUFFS    FAIR      72  46  40 E3        30.22S

$$



USA.gov is the U.S. government's official web portal to all federal, state and local government web resources and services.